WetterOnline ( http://www.wetteronline.de )

Wetter aktuell Garmisch-Partenkirchen

Aktuelles Wetter: Garmisch-Partenkirchen (719m)

6-stündlich | Neueste Meldungen
Ortszeit Temperatur Wetter
Sa, 22.09. 20:00 12.1° C bedeckt
Sa, 22.09. 14:00 14.5° C bedeckt
Sa, 22.09. 8:00 9.0° C bedeckt
Sa, 22.09. 2:00 10.0° C Sprühregen
Fr, 21.09. 20:00 19.2° C bewölkt
Fr, 21.09. 14:00 27.2° C leicht bewölkt
Fr, 21.09. 8:00 9.7° C wolkenlos
Fr, 21.09. 2:00 11.1° C wolkenlos
Ortszeit Temperatur Wetter
Sa, 22.09. 22:00 11.2° C Regen
Sa, 22.09. 21:50 11.2° C bewölkt
Sa, 22.09. 21:40 11.1° C Sprühregen
Sa, 22.09. 21:30 11.3° C leichter Regen
Sa, 22.09. 21:20 11.3° C leichter Regen
Sa, 22.09. 21:10 11.5° C leichter Regen
Sa, 22.09. 21:00 11.7° C leichter Regen
Sa, 22.09. 20:30 12.0° C leichter Regen
Sa, 22.09. 20:00 12.1° C bedeckt
Sa, 22.09. 19:30 12.7° C bedeckt
Sa, 22.09. 19:00 13.4° C bedeckt
Ortszeit Relative Feuchte Sichtweite
Sa, 22.09. 20:00 86% 60 km
Sa, 22.09. 14:00 62% 65 km
Sa, 22.09. 8:00 95% 60 km
Sa, 22.09. 2:00 92% 9 km
Fr, 21.09. 20:00 77% 50 km
Fr, 21.09. 14:00 36% 65 km
Fr, 21.09. 8:00 99% 25 km
Fr, 21.09. 2:00 97% 30 km
Ortszeit Relative Feuchte Sichtweite
Sa, 22.09. 22:00 95% 50 km
Sa, 22.09. 21:50 95% -
Sa, 22.09. 21:40 94% -
Sa, 22.09. 21:30 93% 28 km
Sa, 22.09. 21:20 93% -
Sa, 22.09. 21:10 92% -
Sa, 22.09. 21:00 92% 30 km
Sa, 22.09. 20:30 88% 50 km
Sa, 22.09. 20:00 86% 60 km
Sa, 22.09. 19:30 81% 60 km
Sa, 22.09. 19:00 73% >70 km
Ortszeit Niederschlagsmenge Niederschlagsart
Sa, 22.09. 20:00 0.0 l/m2 in 12 Std. -
Sa, 22.09. 14:00 0.0 l/m2 in 6 Std. -
Sa, 22.09. 8:00 13 l/m2 in 12 Std. Regen
Sa, 22.09. 2:00 11 l/m2 in 6 Std. Regen
Fr, 21.09. 20:00 0.0 l/m2 in 12 Std. -
Fr, 21.09. 14:00 0.0 l/m2 in 6 Std. -
Fr, 21.09. 8:00 0.0 l/m2 in 12 Std. -
Fr, 21.09. 2:00 0.0 l/m2 in 6 Std. -
Ortszeit Niederschlagsmenge Niederschlagsart
Sa, 22.09. 22:00 0.3 l/m2 in 1 Std. Regen
Sa, 22.09. 21:50 keine Meldung -
Sa, 22.09. 21:40 keine Meldung -
Sa, 22.09. 21:30 0.2 l/m2 in 1 Std. -
Sa, 22.09. 21:20 keine Meldung -
Sa, 22.09. 21:10 keine Meldung -
Sa, 22.09. 21:00 0.1 l/m2 in 1 Std. Regen
Sa, 22.09. 20:30 0.1 l/m2 in 1 Std. -
Sa, 22.09. 20:00 0.0 l/m2 in 1 Std. -
Sa, 22.09. 19:30 0.0 l/m2 in 1 Std. -
Sa, 22.09. 19:00 0.0 l/m2 in 1 Std. -
Ortszeit Stärke Spitze Richtung
km/h Bft. km/h Grad Sektor
Sa, 22.09. 20:00 4 1 18 220° SW
Sa, 22.09. 14:00 4 1 11 20° N
Sa, 22.09. 8:00 4 1 18 300° NW
Sa, 22.09. 2:00 4 1 40 140° SO
Fr, 21.09. 20:00 6 1 19 240° SW
Fr, 21.09. 14:00 6 1 11 110° O
Fr, 21.09. 8:00 2 1 6 270° W
Fr, 21.09. 2:00 2 1 9 240° SW
Ortszeit Stärke Spitze Richtung
km/h Bft. km/h Grad Sektor
Sa, 22.09. 22:00 4 1 7 210° SW
Sa, 22.09. 21:50 4 1 - 210° SW
Sa, 22.09. 21:40 4 1 - 190° S
Sa, 22.09. 21:30 0 0 7 - -
Sa, 22.09. 21:20 0 0 - 290° W
Sa, 22.09. 21:10 4 1 - 200° S
Sa, 22.09. 21:00 2 1 6 280° W
Sa, 22.09. 20:30 4 1 4 220° SW
Sa, 22.09. 20:00 4 1 7 220° SW
Sa, 22.09. 19:30 4 1 7 240° SW
Sa, 22.09. 19:00 4 1 14 160° S
Ortszeit Untergrenze Bedeckung Gattung
total tief tief mittel hoch
Sa, 22.09. 20:00 2400 m 8/8 8/8 - - -
Sa, 22.09. 14:00 1050 m 8/8 8/8 - - -
Sa, 22.09. 8:00 780 m 8/8 8/8 - - -
Sa, 22.09. 2:00 540 m 8/8 8/8 - - -
Fr, 21.09. 20:00 2100 m 8/8 7/8 - - -
Fr, 21.09. 14:00 9000 m 8/8 0/8 - - -
Fr, 21.09. 8:00 - 0/8 0/8 - - -
Fr, 21.09. 2:00 - 0/8 0/8 - - -
Ortszeit Bedeckungsgrad in Achtel und Wolkenuntergrenze
Sa, 22.09. 22:00 6(2100m) 7(2700m)
Sa, 22.09. 21:50 6(2100m) 7(2700m)
Sa, 22.09. 21:40 7(2400m) 8(3300m)
Sa, 22.09. 21:30 6(2100m) 7(2700m)
Sa, 22.09. 21:20 6(2100m) 7(2700m)
Sa, 22.09. 21:10 8(2100m)
Sa, 22.09. 21:00 8(2100m)
Sa, 22.09. 20:30 8(2100m)
Sa, 22.09. 20:00 8(2400m)
Sa, 22.09. 19:30 8(2400m) 8(3000m)
Sa, 22.09. 19:00 8(2400m)
Ortszeit Luftdruck NN (hPa) Tendenz (hPa in 3 Std.)
Sa, 22.09. 20:00 1021 - 0,4
Sa, 22.09. 14:00 1022 - 1,5
Sa, 22.09. 8:00 1026 + 0,3
Sa, 22.09. 2:00 1023 + 3,7
Fr, 21.09. 20:00 1012 + 1,2
Fr, 21.09. 14:00 1010 - 1,6
Fr, 21.09. 8:00 1018 - 0,1
Fr, 21.09. 2:00 1018 - 1,2
Ortszeit Luftdruck NN (hPa) Tendenz (hPa in 3 Std.)
Sa, 22.09. 22:00 1022 + 0,7
Sa, 22.09. 21:50 1022 keine Meldung
Sa, 22.09. 21:40 1022 keine Meldung
Sa, 22.09. 21:30 1022 + 0,6
Sa, 22.09. 21:20 1022 keine Meldung
Sa, 22.09. 21:10 1022 keine Meldung
Sa, 22.09. 21:00 1022 + 0,8
Sa, 22.09. 20:30 1021 + 0,1
Sa, 22.09. 20:00 1021 - 0,4
Sa, 22.09. 19:30 1021 - 1,1
Sa, 22.09. 19:00 1021 - 0,6
Ortszeit Schneehöhe (cm)
Sa, 22.09. 20:00 -
Sa, 22.09. 14:00 -
Sa, 22.09. 8:00 -
Sa, 22.09. 2:00 -
Fr, 21.09. 20:00 -
Fr, 21.09. 14:00 -
Fr, 21.09. 8:00 -
Fr, 21.09. 2:00 -
Ortszeit Schneehöhe (cm)
Sa, 22.09. 22:00 -
Sa, 22.09. 21:50 -
Sa, 22.09. 21:40 -
Sa, 22.09. 21:30 -
Sa, 22.09. 21:20 -
Sa, 22.09. 21:10 -
Sa, 22.09. 21:00 -
Sa, 22.09. 20:30 -
Sa, 22.09. 20:00 -
Sa, 22.09. 19:30 -
Sa, 22.09. 19:00 -
Link zu dieser Seite / Seite empfehlen

Das Wetter in ...